This is the latest recevied weather packets stored in our database for station/object DB0SVX. If no packets are shown the sender has not sent any weather packets the latest 10 day(s).
| Time | Temp. | Humidity | Pressure | Rain* | Wind** | Luminosity | Snow |
|---|---|---|---|---|---|---|---|
| 1777794920 | 21.11° C | 37% | 1014.5 hPa | 0 mm | - | - | - |
| 1777794020 | 20° C | 37% | 1014.5 hPa | 0 mm | - | - | - |
| 1777793120 | 18.89° C | 39% | 1014.5 hPa | 0 mm | - | - | - |
| 1777792220 | 17.78° C | 40% | 1014.5 hPa | 0 mm | - | - | - |
| 1777791320 | 16.11° C | 42% | 1014.5 hPa | 0 mm | - | - | - |
| 1777790420 | 14.44° C | 44% | 1014.5 hPa | 0 mm | - | - | - |
| 1777789520 | 12.78° C | 45% | 1014.5 hPa | 0 mm | - | - | - |
| 1777788620 | 11.67° C | 46% | 1014.5 hPa | 0 mm | - | - | - |
| 1777787720 | 11.67° C | 46% | 1014.4 hPa | 0 mm | - | - | - |
| 1777786820 | 11.11° C | 45% | 1014.2 hPa | 0 mm | - | - | - |
| 1777785920 | 10° C | 45% | 1014.2 hPa | 0 mm | - | - | - |
| 1777785020 | 9.44° C | 45% | 1014.4 hPa | 0 mm | - | - | - |
| 1777784120 | 8.89° C | 45% | 1014.5 hPa | 0 mm | - | - | - |
| 1777783220 | 7.78° C | 46% | 1014.5 hPa | 0 mm | - | - | - |
| 1777782320 | 7.22° C | 47% | 1014.5 hPa | 0 mm | - | - | - |
| 1777781420 | 7.22° C | 48% | 1014.4 hPa | 0 mm | - | - | - |
| 1777780520 | 7.22° C | 48% | 1014.4 hPa | 0 mm | - | - | - |
| 1777779620 | 7.22° C | 49% | 1014.4 hPa | 0 mm | - | - | - |
| 1777778720 | 7.22° C | 49% | 1014.4 hPa | 0 mm | - | - | - |
| 1777777820 | 7.78° C | 49% | 1014.4 hPa | 0 mm | - | - | - |
| 1777776920 | 7.78° C | 50% | 1014.5 hPa | 0 mm | - | - | - |
| 1777776020 | 7.78° C | 50% | 1014.5 hPa | 0 mm | - | - | - |
| 1777775120 | 8.33° C | 50% | 1014.5 hPa | 0 mm | - | - | - |
| 1777774220 | 8.33° C | 50% | 1014.7 hPa | 0 mm | - | - | - |
| 1777773320 | 8.89° C | 50% | 1014.7 hPa | 0 mm | - | - | - |
* Rain latest hour (hover to see other rain measurements)
** Current wind speed in m/s (hover to see current wind gust speed)